Jackpot

Texas Poker Multi Jackpot System

Kini Telah hadir Jackpot SUPER ROYAL FLUSH

Kini Telah hadir Jackpot 2000 (khusus table VIP keatas).

Ikutilah global jackpot yang tersedia di system kami, dengan system jackpot terbaru dan pertama di indonesia, anda dapat membeli jackpot dengan harga 100 rupiah saja dan menangkan hadiahnya hingga puluhan juta rupiah.

Jackpot bukanlah suatu keharusan untuk dibeli, namun kami memberikan suatu fitur tambahan untuk member tercinta dari www.wsamgong.info.

Terdapat tiga pilihan harga jackpot yang bisa anda beli yaitu :100,500,1000 dan 2000(khusus table VIP Keatas) rupiah.

Hadiah dari Multi jackpot system www.wsamgong.info

  1. full house x 10 harga jackpot yang anda beli.
      (contoh:anda membeli 1000 maka:1000 X10 = 10.000)
  2. four of kind x 250 harga jackpot yang anda beli
      (contoh:anda membeli 1000 maka:1000 X250 = 250.000)
  3. Straight flush x 1200
      (contoh:anda membeli 1000 maka:1000 X1200 = 1.200.000)
  4. Royal flush x 10000 harga jackpot yang anda beli
      (contoh:anda membeli 1000 maka:1000 X10000 = 10.000.000)
  5. SUPER ROYAL FLUSH x 30000 harga jackpot yang anda beli
      (contoh:anda membeli 1000 maka:1000 X30000 = 30.000.000)

Kondisi kartu

  1. full house adalah kondisi kartu dimana kartu anda dan kartu tengah dengan total 7 kartu bisa mendapatkan nilai 5 kartu dengan kombinasi 1 tris(three of kind) dan 1 pair, contoh 3 kartu 10 dan 2 kartu 5
  2. Four of kind adalah kondisi kartu dimana kartu anda dan kartu tengah dengan total 7 kartu bisa mendapatkan nilai 5 kartu dengan kombinasi 4 kartu yang sama jumlah dan 1 kartu apapun juga contoh anda mendapatkan 4 buah kartu angka 3 dan 1 kartu apapun.
  3. Staright flush adalah kondisi kartu dimana kartu anda dan kartu tengah dengan total 7 kartu bisa mendapatkan nilai 5 kartu dengan kombinasi seri / staright dengan kembang yang sama contoh : urutan kartu dari angka 5, 6, 7, 8 , 9 10 dengan kembang yg sama misalnya as hati
  4. Royal flush adalah kondisi kartu dimana kartu anda dan kartu tengah dengan total 7 kartu bisa mendapatkan nilai 5 kartu dengan kombinasi seri / staright dengan kembang yang sama tetapi kartu tersebut haruslah dimulai dari 10. contoh 10, Queen, Jack, King dan aces dengan kembang yang sama
  5. Super Royal flush adalah kondisi kartu dimana Kedua kartu anda digabung dengan 3 kartu pertama meja haruslah royal flush. contoh kartu anda 10,Queen kembang sama dan 3 kartu pertama meja adalah Jack, King dan aces dengan kembang yang sama

Demikian adalah penjelasan dari Multi Jackpot www.wsamgong.info terima kasih dan selamat bermain salam hoki dari kami

Texas Poker Jackpot Winner

TOP SUPER ROYAL FLUSH
No.TanggalNamaPriceWin
124/01 00:08JDHL24PS9VSuper Royal flush6,000,000
223/01 23:14KHADAFI02Super Royal flush30,000,000
323/01 21:48DUGDAGSuper Royal flush15,000,000
423/01 14:46PLERKINGSuper Royal flush30,000,000
523/01 13:14DIDU234Super Royal flush15,000,000
TOP ROYAL FLUSH
No.TanggalNamaPriceWin
124/01 09:54ABE_9696Royal flush5,000,000
224/01 09:54BAEBE330Royal flush1,000,000
324/01 09:38PROGRESS92Royal flush5,000,000
424/01 09:35KUMIKOOORoyal flush10,000,000
524/01 09:33NISKALRoyal flush2,000,000
TOP STRAIGHT FLUSH
No.TanggalNamaPriceWin
124/01 10:11MR_GEHUStraight Flush120,000
224/01 10:07SNI44731Straight Flush600,000
324/01 10:04NUAR13DStraight Flush240,000
424/01 10:00MLUNG88Straight Flush120,000
524/01 09:58AD1774Straight Flush1,200,000
LATEST JACKPOT
No.TanggalNamaPriceWin
124/01 10:11RAJASULAM2Full House20,000
224/01 10:11AGUSSELFull House2,000
324/01 10:11COGANDZ121Full House5,000
424/01 10:11RHENRY41Full House1,000
524/01 10:11KUNTOAJI8Full House5,000
624/01 10:11AQ711Full House5,000
724/01 10:11OMOKY23Full House20,000
824/01 10:11SIKAT365Full House5,000
924/01 10:11DA78C7FCFull House1,000
1024/01 10:11MAHPUTSUDFull House5,000
1124/01 10:11MARCONURFull House2,000
1224/01 10:11BAPAK_BENIFull House10,000
1324/01 10:11GAGOEFull House10,000
1424/01 10:11BAE66C80Full House2,000
1524/01 10:11ZHIEEFull House2,000
1624/01 10:11TEMP_1Full House1,000
1724/01 10:11MAS_KOKY77Full House5,000
1824/01 10:11MR_GEHUStraight Flush120,000
1924/01 10:11HOMEPOKERFull House5,000
2024/01 10:11AGUSSELFull House2,000
2124/01 10:11IKANGFull House2,000
2224/01 10:11BIEANDBIEFull House2,000
2324/01 10:11MUNDAKKKFull House1,000
2424/01 10:11TBN700Full House20,000
2524/01 10:11ZAHFIRAHFour Of A Kind125,000
2624/01 10:11PBV115Full House5,000
2724/01 10:11BARAS60Full House5,000
2824/01 10:11NURSITI25Full House2,000
2924/01 10:11SIHOTANG95Full House20,000
3024/01 10:11TAKEAHI888Full House5,000
3124/01 10:11APUY62Full House10,000
3224/01 10:11BOSRINGGO9Full House1,000
3324/01 10:11UOVSX2LZYRFour Of A Kind500,000
3424/01 10:11KUNADI999Four Of A Kind250,000
3524/01 10:10TOKEKEK24Full House5,000
3624/01 10:10S4KTI2511Full House2,000
3724/01 10:10EF7ACB3BFull House2,000
3824/01 10:10RANDAGEBOYFull House5,000
3924/01 10:10REZAMSFull House2,000
4024/01 10:10HOUCCE21Full House10,000
4124/01 10:10NEUVILLEFull House20,000
4224/01 10:10NDXX3Full House10,000
4324/01 10:10NGAMBFull House2,000
4424/01 10:10BOND1107Full House20,000
4524/01 10:10GOBLIN006Full House10,000
4624/01 10:10Z12345678ZFull House1,000
4724/01 10:10IMPHALFull House10,000
4824/01 10:10JAFARROHEBFull House2,000
4924/01 10:10MAPUDINASTFull House5,000
5024/01 10:10AKPHKGEUK4Full House2,000

Domino Multi Jackpot System

Ikutilah global jackpot yang tersedia di system kami, dengan system jackpot terbaru dan pertama di indonesia, anda dapat membeli jackpot dengan harga 100 rupiah saja dan menangkan hadiahnya hingga puluhan juta rupiah.

Jackpot bukanlah suatu keharusan untuk dibeli, namun kami memberikan suatu fitur tambahan untuk member tercinta dari www.wsamgong.info.

Terdapat tiga pilihan harga jackpot yang bisa anda beli yaitu :100,500 dan 1000 rupiah.

Hadiah dari Multi jackpot system www.wsamgong.info

  1. Murni Kecil x 50 harga jackpot yang anda beli.
      (contoh:anda membeli 1000 maka:1000 X 50 = 50.000)
  2. Murni Besar x 50 harga jackpot yang anda beli
      (contoh:anda membeli 1000 maka:1000 X 50 = 50.000)
  3. BALAK x 100 harga jackpot yang anda beli
      (contoh:anda membeli 1000 maka:1000 X 100 = 100.000)
  4. ENAM DEWA x 6666 harga jackpot yang anda beli
      (contoh:anda membeli 1000 maka:1000 X 6666 = 6.666.000)

Demikian adalah penjelasan dari Multi Jackpot www.wsamgong.info terima kasih dan selamat bermain salam hoki dari kami

Domino Jackpot Winner

TOP ENAM DEWA
No.TanggalNamaPriceWin
124/01 03:15KWN1990murni enam3,333,000
224/01 02:21BEJO_136murni enam666,600
324/01 01:53ARIS49murni enam3,333,000
424/01 01:07KOMPI02murni enam3,333,000
524/01 00:17LAANOWULU1murni enam6,666,000
TOP BALAK
No.TanggalNamaPriceWin
124/01 09:59RIS744balak100,000
224/01 09:59RAWU6666balak50,000
324/01 09:50GARUKWAEbalak10,000
424/01 09:49SUPL999balak10,000
524/01 09:49WEWEWEWEKbalak50,000
LATEST JACKPOT
No.TanggalNamaPriceWin
124/01 10:114CIKmurni besar5,000
224/01 10:11SITAKAmurni kecil25,000
324/01 10:10DEKY29murni kecil50,000
424/01 10:10BLUEDEVIL8murni kecil50,000
524/01 10:09UDAANG9murni besar50,000
624/01 10:08KECHO88murni kecil5,000
724/01 10:08NYONCLOmurni besar50,000
824/01 10:08SEIERAmurni kecil50,000
924/01 10:08TONI2805murni besar25,000
1024/01 10:06MHI10693murni besar50,000
1124/01 10:04V6RJ0O1EU6murni kecil5,000
1224/01 10:04AD4_AQUAmurni besar50,000
1324/01 10:04BOS181murni besar5,000
1424/01 10:01DENADA303murni kecil25,000
1524/01 10:01AAA2YEWZA4lucky9910,000
1624/01 10:00EMANEKOKmurni besar50,000
1724/01 09:59RIS744balak100,000
1824/01 09:59SDAWETTTmurni besar50,000
1924/01 09:59TONI2805murni besar25,000
2024/01 09:59NYONCLOmurni kecil50,000
2124/01 09:59RAWU6666balak50,000
2224/01 09:59VIRGA9999murni besar50,000
2324/01 09:57RIS744murni kecil50,000
2424/01 09:57ANGGIHYUHUmurni besar25,000
2524/01 09:56RENDANI7murni kecil5,000
2624/01 09:56RULLYANDROmurni kecil50,000
2724/01 09:564CIKmurni kecil5,000
2824/01 09:56TILARmurni besar50,000
2924/01 09:53VALDO017murni kecil50,000
3024/01 09:52UDAANG9murni besar50,000
3124/01 09:51ALPIN63murni besar5,000
3224/01 09:50MPOKERZlucky9925,000
3324/01 09:50VALDO017murni besar50,000
3424/01 09:50GARUKWAEbalak10,000
3524/01 09:49SUPL999balak10,000
3624/01 09:49WEWEWEWEKbalak50,000
3724/01 09:48BIDIN29balak100,000
3824/01 09:48DOHENG66murni besar50,000
3924/01 09:48DWTS0K4Tmurni kecil25,000
4024/01 09:48REVELINObalak100,000
4124/01 09:48EIX82NKH6Rmurni besar5,000
4224/01 09:47NASE89balak50,000
4324/01 09:46BALOKEmurni kecil50,000
4424/01 09:45BLUEDEVIL8murni besar50,000
4524/01 09:45OPAYCHA1lucky992,500
4624/01 09:45TARUNA3456murni besar25,000
4724/01 09:44JANTILbalak50,000
4824/01 09:44IRVAN05lucky9925,000
4924/01 09:44APENG111murni kecil25,000
5024/01 09:43BORU882murni besar50,000

Ceme Multi Jackpot System

Jackpot dilihat dari gabungan kartu pemain dengan kartu bandar. Bandar harus membeli jackpot sebanyak jumlah player yang sedang duduk. Sebagai contoh bila terdapat 3 pemain duduk bermain, dan bandar memutuskan untuk membeli jackpot Rp 1.000, maka pada periode tersebut bandar akan membeli jackpot sebanyak 3xRp1.000 = Rp3.000.

Jackpot bukanlah suatu keharusan untuk dibeli, namun kami memberikan suatu fitur tambahan untuk member tercinta dari www.wsamgong.info.

Terdapat tiga pilihan harga jackpot yang bisa anda beli yaitu :100,500 dan 1000 rupiah.

Hadiah dari Multi jackpot system www.wsamgong.info

  1. Murni Kecil x 50 harga jackpot yang anda beli.
      (contoh:anda membeli 1000 maka:1000 X 50 = 50.000)
  2. Murni Besar x 50 harga jackpot yang anda beli
      (contoh:anda membeli 1000 maka:1000 X 50 = 50.000)
  3. BALAK x 200 harga jackpot yang anda beli
      (contoh:anda membeli 1000 maka:1000 X 200 = 200.000)
  4. ENAM DEWA x 6666 harga jackpot yang anda beli
      (contoh:anda membeli 1000 maka:1000 X 6666 = 6.666.000)

Demikian adalah penjelasan dari Multi Jackpot www.wsamgong.info terima kasih dan selamat bermain salam hoki dari kami

Ceme Jackpot Winner

TOP ENAM DEWA
No.TanggalNamaPriceWin
124/01 10:10HILAL2017murni enam6,666,000
224/01 10:02XXXZ88murni enam3,333,000
324/01 09:45BENJI909murni enam6,666,000
424/01 09:45ROSODOANKmurni enam6,666,000
524/01 09:20MOHWIJAYAmurni enam666,600
TOP BALAK
No.TanggalNamaPriceWin
124/01 10:11WALLATbalak200,000
224/01 10:11LEPAY9balak200,000
324/01 10:09LEOAGUNG12balak20,000
424/01 10:07RAJAJI786balak200,000
524/01 10:06SUDIN766balak100,000
LATEST JACKPOT
No.TanggalNamaPriceWin
124/01 10:11WALLATbalak200,000
224/01 10:11SARBAL25murni kecil25,000
324/01 10:11LEPAY9balak200,000
424/01 10:11DURIN777murni kecil50,000
524/01 10:11Z8JDTATR08murni kecil50,000
624/01 10:11BALUZA24murni besar50,000
724/01 10:11KERE88murni kecil50,000
824/01 10:11DY3X551X3Omurni besar50,000
924/01 10:10HILAL2017murni enam6,666,000
1024/01 10:10EE79E57Cmurni besar50,000
1124/01 10:10TIARA868murni kecil25,000
1224/01 10:10K_BOENmurni kecil50,000
1324/01 10:10R4J4_21murni kecil50,000
1424/01 10:10ADLANI01murni kecil50,000
1524/01 10:10ALFI1111murni kecil25,000
1624/01 10:10CEPU0600murni kecil50,000
1724/01 10:09LEOAGUNG12balak20,000
1824/01 10:09BTNI2004murni besar50,000
1924/01 10:09BANDAR1501murni kecil25,000
2024/01 10:09RIYAN1997murni kecil5,000
2124/01 10:09KAHOI4murni kecil50,000
2224/01 10:09NUAK885murni kecil25,000
2324/01 10:09AKUM868murni kecil5,000
2424/01 10:08KAJIIRENGmurni besar25,000
2524/01 10:08ASTOR28murni kecil25,000
2624/01 10:08MANSUmurni kecil5,000
2724/01 10:08KEPILIMAAmurni kecil50,000
2824/01 10:08ABROR085murni kecil50,000
2924/01 10:08KANCUT232murni kecil5,000
3024/01 10:08AKASIA77murni kecil50,000
3124/01 10:08UZZ1188murni kecil50,000
3224/01 10:07XYZ123Xmurni kecil5,000
3324/01 10:07RAJAJI786balak200,000
3424/01 10:07MECKY23murni besar25,000
3524/01 10:06EDYYUL1murni besar50,000
3624/01 10:06GHALLYmurni besar50,000
3724/01 10:06SUDIN766balak100,000
3824/01 10:06H2ARI345balak100,000
3924/01 10:06CIPUNK26murni kecil25,000
4024/01 10:06PS89murni kecil50,000
4124/01 10:06RIOHOKY14murni kecil5,000
4224/01 10:06MUMUY10murni kecil50,000
4324/01 10:06BENDOL_999murni kecil5,000
4424/01 10:05PS89murni kecil50,000
4524/01 10:05LK4DGARDA86murni kecil50,000
4624/01 10:05BUNRANK80murni kecil5,000
4724/01 10:05TONO9032murni kecil25,000
4824/01 10:05AAJO87murni kecil50,000
4924/01 10:05TAJOS8murni kecil50,000
5024/01 10:05BEBE0203balak200,000